DW3396 Weather Reports


time (UTC)temp
C
wind
direction
speed
KPH
gust
KPH
rain 1hr
cm
rain 24hr
cm
rain mn
cm
humidity
%
barometer
mb
20260504050007 14 182 0.0 0.0 0.00 0.00 0.00 56 1006.1
20260504044505 14 171 0.0 0.0 0.00 0.00 0.00 56 1006.2
20260504043008 15 196 0.0 0.0 0.00 0.00 0.00 56 1006.3
20260504041503 15 196 0.0 0.0 0.00 0.00 0.00 57 1006.3
20260504040007 15 196 0.0 0.0 0.00 0.00 0.00 57 1006.3
20260504034506 15 200 0.0 0.0 0.00 0.00 0.00 56 1006.3
20260504033002 15 270 0.0 6.4 0.00 0.00 0.00 55 1006.4
20260504031501 16 216 0.0 1.6 0.00 0.00 0.00 54 1006.4
20260504030115 16 184 0.0 1.6 0.00 0.00 0.00 53 1006.4
20260504024559 17 184 0.0 4.8 0.00 0.00 0.00 52 1006.3
20260504023059 17 185 0.0 4.8 0.00 0.00 0.00 52 1006.1
20260504021607 17 184 0.0 3.2 0.00 0.00 0.00 48 1006.0
20260504020058 17 181 0.0 0.0 0.00 0.00 0.00 45 1005.9
20260504014558 18 178 0.0 0.0 0.00 0.00 0.00 44 1005.8
20260504013058 18 178 0.0 1.6 0.00 0.00 0.00 44 1005.6
20260504011557 19 257 0.0 0.0 0.00 0.00 0.00 45 1005.5
20260504010056 20 257 0.0 0.0 0.00 0.00 0.00 44 1005.4
20260504004556 20 271 0.0 6.4 0.00 0.00 0.00 45 1005.4
20260504003055 21 193 0.0 6.4 0.00 0.00 0.00 44 1005.3
20260504001554 21 184 1.6 6.4 0.00 0.00 0.00 44 1005.2
20260504000131 22 270 1.6 6.4 0.00 0.00 0.00 43 1005.2
20260503234552 21 190 1.6 6.4 0.00 0.00 0.00 44 1005.1
20260503233051 22 186 4.8 11.3 0.00 0.00 0.00 44 1005.2
20260503231549 21 135 1.6 12.9 0.00 0.00 0.00 46 1005.4
20260503230053 21 161 3.2 11.3 0.00 0.00 0.00 44 1005.5
20260503224547 21 178 1.6 16.1 0.00 0.00 0.00 45 1005.5
20260503223046 22 171 1.6 12.9 0.00 0.00 0.00 44 1005.6
20260503221543 22 136 3.2 11.3 0.00 0.00 0.00 44 1005.6
20260503220044 22 219 4.8 14.5 0.00 0.00 0.00 43 1005.7
20260503214541 22 188 3.2 12.9 0.00 0.00 0.00 42 1005.8
20260503213040 22 205 3.2 14.5 0.00 0.00 0.00 41 1005.7
20260503211538 22 181 4.8 12.9 0.00 0.00 0.00 41 1005.8
20260503210036 22 259 3.2 12.9 0.00 0.00 0.00 42 1006.1
20260503204534 22 190 4.8 12.9 0.00 0.00 0.00 41 1006.4
20260503203131 22 197 4.8 14.5 0.00 0.00 0.00 41 1006.5
20260503201528 21 211 3.2 16.1 0.00 0.00 0.00 43 1006.6
20260503200026 21 220 3.2 12.9 0.00 0.00 0.00 43 1006.7
20260503194523 21 269 3.2 17.7 0.00 0.00 0.00 44 1007.0
20260503193021 21 187 1.6 16.1 0.00 0.00 0.00 45 1007.2
20260503191518 20 196 6.4 16.1 0.00 0.00 0.00 45 1007.4
20260503190015 20 266 1.6 11.3 0.00 0.00 0.00 46 1007.5
20260503184517 20 181 6.4 12.9 0.00 0.00 0.00 46 1007.6
20260503183011 20 111 4.8 11.3 0.00 0.00 0.00 47 1007.7
20260503181507 19 194 1.6 17.7 0.00 0.00 0.00 47 1008.1
20260503180004 18 182 4.8 16.1 0.00 0.00 0.00 48 1008.1
20260503174504 18 182 4.8 19.3 0.00 0.00 0.00 47 1008.6
20260503173100 18 191 3.2 17.7 0.00 0.00 0.00 47 1008.9
20260503171612 17 229 3.2 22.5 0.00 0.00 0.00 49 1009.1
20260503170103 17 193 4.8 29.0 0.00 0.00 0.00 49 1009.2
20260503081540 9 195 4.8 6.4 0.00 0.00 0.00 60 1014.8